CW5917 Weather Reports


Display with metric or nautical units.
time (UTC)temp
F
wind
direction
speed
MPH
gust
MPH
rain 1hr
in
rain 24hr
in
rain mn
in
humidity
%
barometer
mb
20260904103524 76 223 5.0 10.0 0.00 0.06 0.01 93 1012.6
20260904103038 76 234 7.0 10.0 0.00 0.06 0.01 93 1012.6
20260904102532 76 207 6.0 10.0 0.00 0.06 0.01 93 1012.6
20260904102036 76 212 8.0 10.0 0.00 0.06 0.01 93 1012.7
20260904101527 76 217 6.0 10.0 0.00 0.06 0.01 93 1012.6
20260904101042 76 211 7.0 10.0 0.00 0.06 0.01 93 1012.8
20260904100533 76 208 8.0 10.0 0.00 0.06 0.01 94 1012.8
20260904100053 76 204 7.0 10.0 0.00 0.06 0.01 94 1012.9
20260904095527 76 222 7.0 10.0 0.01 0.06 0.01 94 1013.4
20260904095043 76 219 6.0 10.0 0.01 0.06 0.01 94 1012.9
20260904094530 76 215 7.0 9.0 0.01 0.06 0.01 94 1012.9
20260904094041 76 209 4.0 7.0 0.01 0.06 0.01 94 1013.1
20260904093555 76 210 5.0 7.0 0.01 0.06 0.01 94 1013.2
20260904093045 76 210 5.0 6.0 0.01 0.06 0.01 94 1013.2
20260904092519 76 214 3.0 5.0 0.01 0.06 0.01 94 1013.2
20260904092030 75 209 2.0 4.0 0.01 0.06 0.01 94 1013.2
20260904091521 75 220 0.0 2.0 0.01 0.06 0.01 93 1013.2
20260904091036 75 220 1.0 2.0 0.01 0.06 0.01 93 1013.1
20260904090534 75 220 1.0 3.0 0.01 0.06 0.01 93 1013.1
20260904090020 75 220 2.0 3.0 0.00 0.05 0.00 93 1013.1
20260904085517 75 209 1.0 3.0 0.00 0.05 0.00 93 1013.1
20260904085020 75 107 2.0 3.0 0.00 0.05 0.00 93 1013.1
20260904084533 76 107 2.0 3.0 0.00 0.05 0.00 93 1013.3
20260904084029 76 107 0.0 3.0 0.00 0.05 0.00 93 1013.2
20260904083543 76 107 1.0 4.0 0.00 0.05 0.00 93 1013.1
20260904083022 76 107 2.0 6.0 0.00 0.05 0.00 93 1013.2
20260904082522 76 94 2.0 6.0 0.00 0.05 0.00 93 1013.3
20260904082053 76 89 2.0 4.0 0.00 0.05 0.00 93 1013.2
20260904081532 76 110 2.0 4.0 0.00 0.05 0.00 93 1013.1
20260904081025 76 94 2.0 4.0 0.00 0.05 0.00 93 1013.1
20260904080519 76 95 1.0 3.0 0.00 0.05 0.00 93 1013.0
20260904080021 76 94 2.0 3.0 0.00 0.05 0.00 93 1013.1
20260904075554 76 95 0.0 1.0 0.00 0.05 0.00 93 1013.0
20260904075019 76 95 0.0 1.0 0.00 0.05 0.00 93 1013.0
20260904074549 76 94 0.0 2.0 0.00 0.05 0.00 93 1012.8
20260904074024 76 95 1.0 3.0 0.00 0.05 0.00 92 1012.8
20260904073536 76 94 0.0 4.0 0.00 0.05 0.00 92 1012.7
20260904073032 76 182 2.0 4.0 0.00 0.05 0.00 92 1012.8
20260904072556 76 111 1.0 3.0 0.00 0.05 0.00 93 1012.8
20260904072022 76 111 1.0 3.0 0.00 0.05 0.00 93 1012.8
20260904071525 76 111 0.0 4.0 0.00 0.05 0.00 93 1012.8
20260904071034 76 111 1.0 7.0 0.00 0.05 0.00 93 1012.7
20260904070525 76 151 1.0 6.0 0.00 0.05 0.00 93 1012.4
20260904070049 76 111 2.0 6.0 0.00 0.05 0.00 93 1012.5
20260904065524 76 111 3.0 6.0 0.00 0.05 0.00 93 1012.5
20260904065017 76 111 2.0 3.0 0.00 0.05 0.00 93 1012.7
20260904064553 76 111 1.0 4.0 0.00 0.05 0.00 93 1012.7
20260904064038 76 111 2.0 5.0 0.00 0.05 0.00 93 1012.7
20260904063533 76 179 1.0 5.0 0.00 0.05 0.00 92 1012.6
20260904063021 76 131 2.0 4.0 0.00 0.05 0.00 92 1012.6
20260904062537 76 209 1.0 5.0 0.00 0.05 0.00 92 1012.6
20260904062021 76 209 1.0 5.0 0.00 0.05 0.00 92 1012.7
20260904061538 76 209 2.0 4.0 0.00 0.05 0.00 92 1012.8
20260904061046 76 209 2.0 4.0 0.00 0.05 0.00 92 1012.9
20260904060519 76 209 1.0 3.0 0.00 0.05 0.00 92 1013.1
20260904060019 76 209 1.0 3.0 0.00 0.05 0.00 92 1013.2
20260904055534 76 209 0.0 2.0 0.00 0.05 0.00 92 1013.4
20260904055020 76 209 0.0 3.0 0.00 0.05 0.00 92 1013.4
20260904054533 76 209 0.0 3.0 0.00 0.05 0.00 92 1013.5
20260904054028 76 209 1.0 3.0 0.00 0.05 0.00 92 1013.4
20260904053521 76 209 0.0 3.0 0.00 0.05 0.00 92 1013.6
20260904053018 76 209 0.0 4.0 0.00 0.05 0.00 92 1013.6
20260904052517 76 209 2.0 4.0 0.00 0.05 0.00 92 1013.5
20260904052032 77 209 1.0 3.0 0.00 0.05 0.00 92 1013.5
20260904051519 77 209 1.0 3.0 0.00 0.05 0.00 92 1013.7
20260904051034 77 209 2.0 3.0 0.00 0.05 0.00 92 1013.8
20260904050530 77 209 1.0 5.0 0.00 0.05 0.00 92 1013.8
20260904050038 77 240 1.0 5.0 0.00 0.05 0.05 92 1013.8
20260904045528 77 173 2.0 4.0 0.00 0.05 0.05 92 1013.8
20260904045021 77 355 1.0 7.0 0.00 0.05 0.05 91 1013.7
20260904044527 77 193 2.0 7.0 0.00 0.05 0.05 91 1013.7
20260904044026 77 215 3.0 6.0 0.00 0.05 0.05 91 1013.9
20260904043520 77 155 3.0 5.0 0.00 0.05 0.05 91 1013.8
20260904043025 77 111 2.0 5.0 0.00 0.05 0.05 91 1014.0
20260904042541 77 138 0.0 5.0 0.00 0.05 0.05 91 1014.0
20260904042017 77 157 1.0 3.0 0.00 0.05 0.05 91 1014.1
20260904041525 77 88 1.0 4.0 0.00 0.05 0.05 91 1014.0
20260904041020 77 157 1.0 4.0 0.00 0.05 0.05 91 1014.0
20260904040533 77 142 2.0 6.0 0.00 0.05 0.05 91 1014.1
20260904040041 77 107 1.0 7.0 0.00 0.05 0.05 91 1014.0
20260904035535 77 109 2.0 7.0 0.00 0.05 0.05 91 1014.1
20260904035030 77 109 2.0 7.0 0.00 0.05 0.05 91 1014.0
20260904034529 77 120 1.0 9.0 0.00 0.05 0.05 91 1014.2
20260904034022 77 89 3.0 9.0 0.00 0.05 0.05 91 1014.3
20260904033535 77 115 1.0 6.0 0.00 0.05 0.05 91 1014.4
20260904033033 77 122 1.0 6.0 0.00 0.05 0.05 91 1014.5
20260904032528 77 138 3.0 7.0 0.00 0.05 0.05 91 1014.5
20260904032020 77 126 3.0 7.0 0.00 0.05 0.05 91 1014.6
20260904031520 77 117 3.0 7.0 0.00 0.05 0.05 91 1014.6
20260904031029 77 117 3.0 7.0 0.00 0.05 0.05 91 1014.7
20260904030525 77 129 3.0 7.0 0.00 0.05 0.05 91 1014.6
20260904030026 77 108 3.0 6.0 0.00 0.05 0.05 91 1014.6
20260904025521 77 111 2.0 6.0 0.00 0.05 0.05 91 1014.5
20260904025035 77 117 3.0 7.0 0.00 0.05 0.05 91 1014.6
20260904024525 77 80 3.0 7.0 0.00 0.05 0.05 90 1014.5
20260904024036 77 91 4.0 7.0 0.00 0.05 0.05 90 1014.3
20260904023538 77 107 3.0 7.0 0.00 0.05 0.05 90 1014.2
20260904023026 77 79 4.0 7.0 0.00 0.05 0.05 90 1014.2
20260904022522 77 109 3.0 7.0 0.00 0.05 0.05 90 1014.1
20260904022057 78 85 4.0 7.0 0.00 0.05 0.05 90 1014.1
20260904021529 78 123 3.0 8.0 0.00 0.05 0.05 90 1014.2
20260904021025 78 71 3.0 8.0 0.00 0.05 0.05 90 1014.3
20260904020541 78 115 2.0 6.0 0.00 0.05 0.05 90 1014.2
20260904020028 78 113 2.0 4.0 0.00 0.05 0.05 90 1014.1
20260904015544 78 113 2.0 5.0 0.00 0.05 0.05 90 1014.0
20260904015035 78 90 2.0 6.0 0.00 0.05 0.05 90 1014.0
20260904014517 78 104 3.0 7.0 0.00 0.05 0.05 90 1013.9
20260904014033 78 101 3.0 7.0 0.00 0.05 0.05 90 1013.8
20260904013517 78 105 3.0 7.0 0.00 0.05 0.05 90 1013.8
20260904013037 78 128 3.0 6.0 0.00 0.05 0.05 90 1013.7
20260904012521 78 110 3.0 6.0 0.00 0.05 0.05 90 1013.5
20260904012034 78 99 3.0 4.0 0.00 0.05 0.05 90 1013.5
20260904011520 78 124 3.0 6.0 0.00 0.05 0.05 90 1013.7
20260904011056 79 93 1.0 6.0 0.00 0.05 0.05 89 1013.7
20260904010528 79 93 3.0 6.0 0.00 0.05 0.05 89 1013.8
20260904010021 79 93 2.0 4.0 0.00 0.05 0.05 89 1013.8
20260904005531 79 103 1.0 4.0 0.00 0.05 0.05 89 1013.7
20260904005018 79 103 1.0 4.0 0.00 0.05 0.05 89 1013.7
20260904004536 79 103 2.0 4.0 0.00 0.05 0.05 89 1013.6
20260904004028 80 103 2.0 4.0 0.00 0.05 0.05 88 1013.6
20260904003525 80 57 0.0 3.0 0.00 0.05 0.05 88 1013.5
20260904003047 80 57 0.0 2.0 0.00 0.05 0.05 87 1013.5
20260904002520 80 57 1.0 4.0 0.00 0.05 0.05 87 1013.5
20260904002033 80 57 2.0 5.0 0.00 0.05 0.05 87 1013.5
20260904001521 81 57 3.0 5.0 0.00 0.05 0.05 86 1013.4
20260904001035 81 110 2.0 4.0 0.00 0.05 0.05 84 1013.7
20260904000520 82 110 2.0 4.0 0.00 0.05 0.05 83 1013.5
20260904000028 82 110 2.0 4.0 0.00 0.05 0.05 83 1013.4
20260903235525 82 110 1.0 3.0 0.00 0.05 0.05 83 1013.4
20260903235039 82 110 0.0 3.0 0.00 0.05 0.05 82 1013.3
20260903234535 82 110 2.0 6.0 0.00 0.05 0.05 82 1013.3
20260903234050 82 110 2.0 4.0 0.00 0.05 0.05 82 1013.4
20260903233542 82 110 2.0 4.0 0.00 0.05 0.05 82 1013.2
20260903233030 82 159 0.0 3.0 0.00 0.05 0.05 83 1013.3
20260903232525 82 159 1.0 5.0 0.00 0.05 0.05 84 1013.1
20260903232057 82 174 2.0 5.0 0.00 0.05 0.05 84 1013.2
20260903231530 82 115 0.0 4.0 0.00 0.05 0.05 85 1013.0
20260903231026 81 136 1.0 4.0 0.00 0.05 0.05 85 1013.1
20260903230521 81 138 1.0 6.0 0.00 0.05 0.05 85 1012.9
20260903230021 81 183 2.0 6.0 0.00 0.05 0.05 85 1013.0
20260903225552 81 142 1.0 6.0 0.00 0.05 0.05 85 1012.9
20260903225021 82 180 3.0 7.0 0.00 0.05 0.05 84 1013.0
20260903224529 82 155 4.0 7.0 0.00 0.05 0.05 84 1012.8
20260903224024 82 193 4.0 6.0 0.00 0.05 0.05 84 1012.8
20260903223539 82 142 3.0 6.0 0.00 0.05 0.05 83 1012.8
20260903223036 82 95 3.0 8.0 0.00 0.05 0.05 83 1013.0
20260903222547 82 186 3.0 6.0 0.00 0.05 0.05 82 1013.1
20260903222041 83 167 2.0 8.0 0.00 0.05 0.05 82 1012.7
20260903221528 83 122 3.0 6.0 0.00 0.05 0.05 81 1012.8
20260903221023 83 199 2.0 6.0 0.00 0.05 0.05 83 1013.0
20260903220517 83 192 2.0 7.0 0.00 0.05 0.05 82 1012.9
20260903220031 83 169 2.0 9.0 0.00 0.05 0.05 82 1013.1
20260903215517 83 186 4.0 8.0 0.00 0.05 0.05 83 1013.3
20260903215059 82 169 5.0 10.0 0.00 0.05 0.05 82 1013.4
20260903214527 83 173 3.0 8.0 0.00 0.05 0.05 82 1013.4
20260903214021 83 205 5.0 8.0 0.00 0.05 0.05 82 1013.7
20260903213532 82 202 4.0 8.0 0.00 0.05 0.05 82 1013.7
20260903213052 82 209 5.0 8.0 0.00 0.05 0.05 81 1013.7
20260903212537 82 150 4.0 9.0 0.00 0.05 0.05 82 1013.6
20260903212035 82 202 6.0 10.0 0.00 0.05 0.05 83 1013.6
20260903211600 81 175 6.0 10.0 0.00 0.05 0.05 83 1013.4
20260903211029 81 186 6.0 10.0 0.00 0.05 0.05 83 1013.3
20260903210525 82 189 4.0 9.0 0.00 0.05 0.05 83 1013.4
20260903210048 82 180 4.0 10.0 0.00 0.05 0.05 82 1013.5
20260903205522 82 205 5.0 10.0 0.00 0.05 0.05 82 1013.5
20260903205035 82 179 7.0 14.0 0.00 0.05 0.05 82 1013.6
20260903204519 82 185 7.0 12.0 0.00 0.05 0.05 81 1013.5
20260903204038 82 166 8.0 13.0 0.00 0.05 0.05 81 1013.7
20260903203519 82 197 9.0 13.0 0.00 0.05 0.05 80 1013.8
20260903203031 82 205 9.0 13.0 0.00 0.05 0.05 80 1013.9
20260903202521 82 225 6.0 9.0 0.00 0.05 0.05 80 1013.8
20260903202036 82 209 5.0 8.0 0.00 0.05 0.05 80 1014.1
20260903201533 82 183 5.0 9.0 0.00 0.05 0.05 80 1014.2
20260903201028 82 184 6.0 9.0 0.00 0.05 0.05 79 1014.1
20260903200535 82 186 4.0 10.0 0.00 0.05 0.05 77 1014.1
20260903200036 83 169 6.0 10.0 0.00 0.05 0.05 75 1014.0
20260903195517 84 163 4.0 9.0 0.00 0.05 0.05 74 1014.0
20260903195037 84 128 2.0 11.0 0.00 0.05 0.05 76 1013.9
20260903194527 84 112 4.0 11.0 0.00 0.05 0.05 76 1014.0
20260903194019 84 150 3.0 6.0 0.00 0.05 0.05 78 1014.1
20260903193516 83 198 3.0 8.0 0.00 0.05 0.05 78 1014.1
20260903193037 82 130 2.0 7.0 0.00 0.05 0.05 79 1014.1
20260903192519 81 162 2.0 6.0 0.00 0.05 0.05 78 1014.1
20260903192034 81 163 4.0 9.0 0.00 0.05 0.05 78 1014.1
20260903191531 81 161 6.0 9.0 0.00 0.05 0.05 78 1014.2
20260903191037 82 207 2.0 9.0 0.00 0.05 0.05 77 1014.2
20260903190530 83 148 3.0 9.0 0.00 0.05 0.05 73 1014.3
20260903190048 83 95 4.0 9.0 0.00 0.05 0.05 78 1014.4
20260903185542 83 118 3.0 7.0 0.00 0.05 0.05 76 1014.4
20260903185035 82 199 2.0 7.0 0.00 0.05 0.05 78 1014.4
20260903184523 81 153 3.0 9.0 0.00 0.05 0.05 80 1014.5
20260903184019 81 168 3.0 6.0 0.00 0.05 0.05 79 1014.6
20260903183530 81 123 3.0 7.0 0.00 0.05 0.05 84 1014.6
20260903183021 79 162 3.0 7.0 0.00 0.05 0.05 85 1014.7
20260903182516 78 124 3.0 4.0 0.00 0.05 0.05 82 1014.8
20260903182035 78 119 2.0 4.0 0.00 0.05 0.05 82 1015.0
20260903181535 78 115 2.0 7.0 0.00 0.05 0.05 82 1015.1
20260903181028 78 97 3.0 7.0 0.00 0.05 0.05 82 1015.1
20260903180519 78 82 2.0 7.0 0.00 0.05 0.05 84 1015.3
20260903180028 77 63 2.0 6.0 0.00 0.05 0.05 84 1015.1
20260903175545 77 107 3.0 7.0 0.00 0.05 0.05 83 1015.3
20260903175020 77 110 4.0 7.0 0.00 0.05 0.05 83 1015.4
20260903174534 77 26 4.0 7.0 0.00 0.05 0.05 83 1015.4
20260903174017 77 122 3.0 6.0 0.00 0.05 0.05 84 1015.3
20260903173532 77 101 5.0 8.0 0.00 0.05 0.05 83 1015.3
20260903173023 77 118 3.0 9.0 0.00 0.05 0.05 83 1015.4
20260903172519 78 114 5.0 9.0 0.00 0.05 0.05 82 1015.3
20260903172037 78 117 3.0 9.0 0.00 0.05 0.05 84 1015.1
20260903171532 77 107 5.0 10.0 0.00 0.05 0.05 84 1015.0
20260903171046 77 106 3.0 10.0 0.00 0.05 0.05 85 1015.0
20260903170521 76 99 6.0 8.0 0.00 0.05 0.05 87 1015.0
20260903170024 75 110 3.0 6.0 0.00 0.05 0.05 87 1015.2
20260903165520 75 110 1.0 6.0 0.00 0.05 0.05 86 1015.4
20260903165032 75 110 3.0 6.0 0.00 0.05 0.05 87 1015.2
20260903164519 75 110 2.0 8.0 0.00 0.05 0.05 87 1015.3
20260903164031 75 104 3.0 10.0 0.00 0.05 0.05 87 1015.4
20260903163516 75 115 6.0 10.0 0.00 0.05 0.05 87 1015.1
20260903163027 75 131 4.0 8.0 0.00 0.05 0.05 88 1015.2
20260903162540 75 113 1.0 6.0 0.00 0.05 0.05 88 1015.1
20260903162035 75 67 2.0 8.0 0.00 0.05 0.05 89 1015.1
20260903161533 75 81 4.0 8.0 0.00 0.05 0.05 90 1015.2
20260903161028 74 98 4.0 7.0 0.00 0.05 0.05 89 1015.3
20260903160521 74 128 3.0 5.0 0.00 0.05 0.05 89 1015.1
20260903160047 74 168 3.0 6.0 0.00 0.05 0.05 90 1015.2
20260903155522 74 163 2.0 6.0 0.00 0.05 0.05 90 1014.9
20260903155018 74 162 3.0 7.0 0.00 0.05 0.05 90 1014.8
20260903154528 73 97 3.0 7.0 0.00 0.05 0.05 90 1014.7
20260903154043 73 117 3.0 5.0 0.02 0.05 0.05 90 1014.6
20260903153532 73 116 3.0 6.0 0.04 0.05 0.05 91 1014.6
20260903153019 72 36 1.0 5.0 0.05 0.05 0.05 91 1014.8
20260903152553 72 36 4.0 7.0 0.05 0.05 0.05 90 1014.6
20260903151534 71 69 4.0 8.0 0.05 0.05 0.05 90 1014.5
20260903151046 71 56 2.0 5.0 0.05 0.05 0.05 89 1015.2
20260903150542 71 59 2.0 9.0 0.05 0.05 0.05 89 1015.5
20260903150037 71 311 2.0 9.0 0.05 0.05 0.05 88 1016.0
20260903145553 72 346 4.0 11.0 0.05 0.05 0.05 88 1016.1
20260903145021 72 290 5.0 14.0 0.05 0.05 0.05 87 1016.2
20260903144529 72 312 8.0 19.0 0.04 0.04 0.04 86 1016.4
20260903144046 73 340 12.0 19.0 0.02 0.02 0.02 85 1016.2
20260903143520 73 279 10.0 18.0 0.00 0.00 0.00 85 1016.8
20260903143042 74 254 8.0 17.0 0.00 0.00 0.00 84 1016.6
20260903142532 74 232 10.0 17.0 0.00 0.00 0.00 84 1016.4
20260903142038 74 236 9.0 21.0 0.00 0.00 0.00 84 1016.1
20260903141525 74 272 11.0 23.0 0.00 0.00 0.00 84 1015.9
20260903141021 75 316 12.0 24.0 0.00 0.00 0.00 84 1016.2
20260903140516 75 276 15.0 27.0 0.00 0.00 0.00 84 1016.3
20260903140054 76 340 14.0 30.0 0.00 0.00 0.00 84 1016.2
20260903135526 76 264 16.0 30.0 0.00 0.00 0.00 85 1016.4
20260903135041 76 288 16.0 28.0 0.00 0.00 0.00 87 1016.2
20260903134525 76 293 14.0 28.0 0.00 0.00 0.00 89 1015.8
20260903134041 76 241 11.0 16.0 0.00 0.00 0.00 91 1015.5
20260903133532 76 237 8.0 14.0 0.00 0.00 0.00 91 1015.2
20260903133028 76 252 8.0 14.0 0.00 0.00 0.00 92 1015.3
20260903132523 76 261 5.0 7.0 0.00 0.00 0.00 92 1014.9
20260903132018 76 221 3.0 4.0 0.00 0.00 0.00 92 1014.6
20260903131536 76 300 2.0 4.0 0.00 0.00 0.00 92 1014.6
20260903131025 76 300 3.0 4.0 0.00 0.00 0.00 92 1014.3
20260903130518 75 300 3.0 4.0 0.00 0.00 0.00 93 1014.3
20260903130030 75 300 0.0 2.0 0.00 0.00 0.00 93 1014.3
20260903125526 75 300 0.0 3.0 0.00 0.00 0.00 93 1014.4
20260903125040 75 300 0.0 4.0 0.00 0.00 0.00 93 1014.4
20260903124532 75 300 1.0 4.0 0.00 0.00 0.00 93 1014.3
20260903124037 75 300 3.0 12.0 0.00 0.00 0.00 93 1014.6
20260903123529 75 317 8.0 15.0 0.00 0.00 0.00 93 1014.7
20260903123054 75 15 11.0 15.0 0.00 0.00 0.00 93 1014.6
20260903122528 75 311 4.0 8.0 0.00 0.00 0.00 93 1014.1
20260903122026 75 224 6.0 8.0 0.00 0.00 0.00 93 1013.8
20260903121531 75 211 6.0 8.0 0.00 0.00 0.00 94 1013.5
20260903121037 75 230 5.0 9.0 0.00 0.00 0.00 94 1013.4
20260903120531 75 213 6.0 9.0 0.00 0.00 0.00 94 1013.3
20260903120022 75 213 6.0 9.0 0.00 0.00 0.00 94 1013.4
20260903115519 75 227 6.0 9.0 0.00 0.00 0.00 94 1013.3
20260903115032 75 210 5.0 7.0 0.00 0.00 0.00 94 1013.3
20260903114519 75 200 4.0 8.0 0.00 0.00 0.00 94 1013.3
20260903114031 75 241 4.0 7.0 0.00 0.00 0.00 95 1013.3
20260903113519 75 223 4.0 7.0 0.00 0.00 0.00 95 1013.3
20260903113037 74 221 4.0 7.0 0.00 0.00 0.00 95 1013.3
20260903112530 74 223 4.0 7.0 0.00 0.00 0.00 95 1013.3
20260903112041 74 210 5.0 8.0 0.00 0.00 0.00 95 1013.9
20260903111549 74 214 5.0 8.0 0.00 0.00 0.00 95 1013.3
20260903111024 74 208 5.0 7.0 0.00 0.00 0.00 95 1013.2
20260903110521 74 214 5.0 7.0 0.00 0.00 0.00 95 1013.1
20260903110021 74 198 5.0 8.0 0.00 0.00 0.00 95 1013.1
20260903105552 74 207 5.0 8.0 0.00 0.00 0.00 96 1013.2
20260903105016 74 211 5.0 8.0 0.00 0.00 0.00 96 1013.2
20260903104526 74 227 5.0 6.0 0.00 0.00 0.00 96 1013.2
20260903104018 73 227 4.0 6.0 0.00 0.00 0.00 96 1013.3